Temp
8 8 8 8 8 8 8 8 8 8 8 8 9 9 9 9 9 8 8 8 8 8 8 8 9 9 9 9 9 10 10 11 12 12 14 17 20 20 20 21 22 22 21 21 21 21 22 22 23 23 24 24 25 25 26 26 27 27 26 25 23 24 24 26 28 28 30 30 30 31 31 31 31 31 32 32 32 32 32 28 26 27 26 26 25 23 21 20
8 8 8 8 8 8 8 8 8 8 8 8 9 9 9 9 8 8 8 8 8 8 9 8 9 9 9 9 10 10 10 11 11 12 17 21 21 20 20 21 21 22 21 21 21 21 21 23 24 24 24 24 25 26 26 27 27 26 26 25 24 25 26 28 28 29 31 30 30 31 31 31 31 31 31 31 31 31 30 26 25 25 24 24 23 21 21 20
8 8 8 8 8 8 8 8 8 8 8 8 8 8 9 8 9 9 8 8 9 9 9 8 8 8 9 9 10 11 10 11 13 16 21 23 21 20 20 20 21 22 21 22 22 22 22 24 25 25 24 24 25 26 26 27 27 26 26 25 25 27 27 28 29 29 30 30 30 31 30 31 31 31 31 31 30 31 30 26 24 24 23 23 22 21 21 20
8 8 8 8 8 8 8 8 8 8 8 8 9 8 8 9 9 9 9 9 9 9 8 8 8 8 9 10 11 11 10 13 17 20 23 24 23 22 21 21 22 22 22 22 22 22 23 24 25 26 25 24 25 26 26 26 27 27 26 25 26 27 27 28 29 29 30 30 30 30 30 30 31 31 31 31 30 30 29 27 25 24 23 23 22 22 21 20
7 7 8 8 8 8 8 8 8 8 8 8 8 8 9 9 9 9 9 9 9 8 8 8 8 9 10 11 12 11 11 17 21 23 23 23 23 22 21 21 21 22 22 21 21 22 22 23 24 25 25 25 25 25 26 27 28 27 27 26 27 27 27 28 29 29 30 30 29 29 29 30 30 31 30 31 30 28 28 28 26 24 24 23 22 22 21 19
7 7 7 7 8 8 8 8 8 8 8 8 8 8 9 9 9 9 9 9 9 8 8 8 9 10 11 12 12 11 13 20 22 22 23 23 23 22 22 22 21 22 21 21 21 22 22 23 24 25 25 25 25 25 26 27 28 27 27 27 27 28 28 29 30 30 30 30 29 29 29 30 30 30 31 31 29 27 27 28 26 25 24 23 22 21 20 19
7 7 7 7 7 8 8 8 8 8 8 8 8 8 8 9 9 9 9 9 8 8 8 8 9 11 12 12 12 11 14 18 21 22 23 22 22 22 22 22 22 22 21 21 21 22 22 23 24 25 25 25 25 26 26 27 28 27 27 28 28 28 28 29 30 30 30 30 29 29 30 29 29 29 31 31 28 26 27 27 26 25 24 23 21 20 19 19
7 7 7 7 7 7 7 8 8 8 8 8 8 8 8 9 9 9 9 8 8 8 8 8 10 11 12 12 13 14 15 18 21 23 23 22 22 22 22 22 22 21 21 21 22 22 22 23 25 25 25 25 26 26 27 27 27 27 27 28 28 29 29 29 29 29 29 30 30 30 29 29 29 30 30 30 27 26 26 25 25 24 23 22 20 19 19 18
7 7 7 7 7 7 7 7 8 8 8 8 8 8 8 8 8 8 9 8 8 8 8 9 10 12 11 11 13 17 20 22 23 23 23 23 22 22 21 22 22 21 21 21 22 22 23 24 26 26 25 25 26 26 27 26 26 28 28 28 29 29 29 29 29 30 30 30 30 29 29 29 30 30 30 30 27 25 25 24 24 22 21 21 19 19 18 17
7 7 7 7 7 7 7 8 9 10 10 10 9 9 9 9 9 8 8 8 8 8 8 9 11 12 11 11 14 18 22 24 23 23 23 22 22 22 21 22 22 21 22 22 23 23 23 24 26 27 26 26 26 27 27 27 27 29 29 29 29 29 29 29 29 30 30 30 29 29 28 29 30 29 29 29 27 25 25 24 23 22 21 20 19 18 17 17
7 7 7 7 7 7 8 9 12 13 12 12 12 12 12 11 11 10 9 8 9 8 9 10 11 11 11 13 14 18 23 24 23 23 23 22 21 21 22 22 22 22 22 23 23 24 24 25 27 27 26 26 26 27 27 28 28 29 29 28 29 28 29 28 29 29 29 29 29 30 29 29 29 29 29 29 26 26 25 24 23 21 20 19 18 18 17 17
7 7 7 7 7 7 9 12 14 14 13 13 13 13 13 13 12 12 11 9 8 8 9 10 11 10 11 13 14 19 24 24 23 23 22 22 22 22 23 23 23 23 23 23 24 25 26 27 27 26 26 26 26 26 27 27 28 28 28 27 27 28 28 28 28 29 29 29 30 30 27 27 29 28 30 30 27 27 25 23 23 21 20 19 18 17 17 17
7 7 7 7 7 7 10 13 14 14 14 14 13 13 14 14 14 13 12 11 9 9 9 10 11 10 11 15 18 22 25 24 24 23 23 23 23 23 23 23 24 24 24 24 25 26 27 28 27 26 26 26 25 26 27 27 27 28 28 27 27 26 26 27 28 29 29 29 30 29 24 25 28 29 30 30 28 28 26 23 22 21 20 19 18 18 18 18
7 7 7 7 7 8 12 14 14 14 14 15 15 15 15 15 15 14 14 13 11 10 10 11 11 10 12 17 21 24 25 24 24 24 23 23 23 23 24 24 24 24 25 25 26 26 27 27 27 26 26 26 26 26 26 26 27 28 27 26 26 23 24 27 28 28 28 28 30 29 23 24 28 28 29 30 28 28 26 23 22 21 20 19 18 18 18 19
7 7 7 7 9 11 13 14 14 15 15 17 17 16 16 16 15 15 14 14 13 12 11 11 11 11 14 17 22 24 25 25 25 24 24 24 24 24 24 25 25 25 25 25 26 26 27 27 26 25 26 26 26 25 25 25 26 27 25 23 24 23 23 27 28 28 28 28 30 28 24 25 28 28 29 30 29 27 26 23 22 21 20 19 18 18 19 19
7 7 7 9 12 14 14 15 15 16 17 18 17 17 16 15 15 15 15 15 14 13 12 11 12 12 15 19 22 24 24 24 25 25 24 24 24 24 25 25 25 25 26 26 26 26 27 27 26 25 25 25 25 24 24 24 24 26 24 22 23 23 23 25 28 29 29 28 29 28 26 26 28 28 29 30 29 26 25 23 22 21 20 19 19 19 19 18
7 8 10 12 14 14 15 16 17 17 18 18 17 16 15 15 15 15 15 15 14 13 13 13 14 14 17 21 22 23 24 24 25 25 25 25 24 25 26 25 25 25 26 26 26 26 26 26 25 25 25 25 24 24 23 21 21 23 24 22 23 24 23 24 27 29 29 29 28 28 28 27 28 29 29 31 29 25 24 23 22 21 20 19 19 19 19 18
9 10 12 13 14 15 16 17 18 18 18 18 17 16 15 14 14 14 15 15 14 13 13 14 15 15 18 21 21 23 25 25 25 26 25 25 25 25 26 26 26 26 25 25 26 25 25 25 25 24 24 24 24 23 21 21 22 22 23 22 23 24 24 24 26 28 29 29 28 28 27 27 28 29 29 30 30 25 23 23 22 21 20 20 20 19 19 19
10 12 13 14 14 16 17 17 18 18 18 18 16 15 14 13 13 14 13 14 15 15 17 17 16 19 22 23 22 24 26 26 26 26 26 26 26 25 26 26 26 25 24 24 24 25 25 25 24 23 23 23 24 24 23 23 24 23 23 23 22 23 24 26 27 29 29 28 28 28 26 27 28 29 29 29 30 26 22 22 21 21 21 20 20 20 19 20
12 12 13 14 15 16 17 17 17 17 17 17 16 15 15 15 16 16 14 15 16 18 20 20 19 21 23 24 25 25 26 26 26 26 26 26 26 26 26 26 26 25 24 24 24 25 25 23 23 22 23 23 24 25 25 25 26 25 24 23 23 23 24 27 29 29 30 28 27 28 28 28 28 28 28 29 29 25 22 22 21 21 21 20 21 20 20 20
13 13 14 15 16 16 17 17 17 17 16 16 15 15 17 19 19 19 18 17 18 19 20 21 21 21 22 24 26 26 26 25 25 26 26 26 26 25 25 25 24 24 24 24 24 25 24 22 22 23 24 25 25 26 26 25 25 25 24 23 23 23 24 28 28 28 30 28 26 27 27 27 27 27 27 28 28 25 23 23 22 21 21 21 21 21 20 20
13 14 14 15 16 17 17 17 17 16 15 14 13 14 18 20 21 22 21 19 20 21 20 21 22 22 24 25 26 27 26 25 24 25 26 26 26 24 24 25 24 23 24 24 24 24 23 22 23 25 25 26 26 26 26 25 25 25 24 23 22 23 24 27 28 28 29 27 26 27 26 26 26 27 27 28 28 26 24 23 23 23 22 21 21 21 21 21
13 14 14 15 16 16 16 17 16 16 15 14 13 15 19 21 22 22 21 20 20 22 22 22 22 23 24 25 27 27 25 25 24 25 26 26 25 24 24 24 23 24 24 24 23 22 22 23 25 25 26 26 26 26 26 25 25 24 24 23 22 24 24 23 26 27 27 27 26 27 26 25 26 27 28 28 29 28 26 25 23 23 23 22 22 22 22 21
14 14 14 15 15 16 16 17 16 16 17 16 15 18 21 22 22 22 21 19 19 21 23 24 24 24 24 26 27 27 25 25 25 25 26 25 25 25 24 24 24 23 24 24 24 23 23 25 26 25 26 26 25 25 25 24 24 24 24 23 23 24 24 23 25 27 26 26 27 26 24 24 26 26 27 28 29 28 28 28 26 24 23 22 23 22 22 22
14 14 14 15 15 16 16 15 16 18 17 16 16 21 23 22 22 22 20 19 19 21 23 24 25 25 26 27 27 27 26 26 26 26 27 26 25 25 24 25 24 23 24 25 25 24 24 26 27 26 26 26 25 25 25 24 23 23 24 25 25 25 25 25 26 25 23 23 26 25 21 21 25 26 26 28 28 28 28 28 28 27 24 22 23 23 22 22
14 14 14 15 15 15 15 15 16 17 17 17 19 22 22 21 22 22 20 18 18 21 23 23 24 25 26 26 26 27 25 25 27 27 27 26 27 26 25 25 25 24 25 26 25 24 25 26 26 26 25 25 25 24 25 25 22 21 24 26 26 26 25 25 25 24 21 21 25 25 22 21 23 25 26 27 28 27 27 28 28 28 26 23 23 23 22 22
13 14 14 14 15 14 14 16 17 17 18 20 21 22 22 22 22 21 19 17 18 22 23 23 24 25 25 26 27 26 23 25 27 27 27 26 27 27 25 24 25 25 26 26 24 24 25 26 26 26 25 25 24 24 25 26 23 22 25 26 26 26 25 25 25 23 22 23 24 25 23 21 21 23 26 27 27 26 27 28 28 28 28 25 23 23 22 22
13 14 14 14 15 14 14 15 15 16 19 21 21 21 21 21 22 21 18 16 20 24 24 23 24 25 25 26 27 26 25 26 26 26 27 27 26 26 24 24 25 24 26 25 22 24 26 25 25 25 25 24 24 24 26 26 24 24 26 27 26 26 25 25 25 23 23 23 21 22 23 21 20 23 26 26 26 25 26 27 28 28 27 25 23 23 22 22
13 14 14 14 15 15 15 14 13 16 20 21 20 21 21 21 21 20 17 17 21 24 24 23 24 25 25 26 26 26 26 26 25 26 27 26 26 26 25 25 25 24 25 25 23 24 26 26 26 26 24 24 25 26 26 25 24 25 26 26 26 26 26 25 24 23 23 22 20 21 22 21 20 22 25 25 24 25 26 27 27 26 25 24 23 23 23 22
13 14 14 14 14 15 14 13 15 19 21 20 19 20 21 20 20 17 16 18 22 24 24 23 23 24 24 24 25 25 25 25 26 27 26 26 26 26 25 25 25 24 24 25 24 25 27 27 27 26 25 25 26 26 26 26 26 26 26 26 25 25 25 25 24 23 21 20 21 22 22 21 21 21 23 24 25 26 26 27 26 25 24 24 23 23 23 23
14 14 14 14 14 14 13 14 18 20 19 19 20 20 20 19 18 16 16 20 22 23 24 23 23 25 25 24 24 25 25 25 26 26 25 26 25 25 25 25 24 23 23 23 24 25 26 26 26 26 26 26 26 25 26 26 27 26 26 24 23 22 23 22 22 22 21 20 21 22 22 22 20 21 24 25 26 27 27 26 25 24 24 24 24 23 23 22
14 15 15 15 15 15 14 17 20 19 19 20 20 20 19 17 17 16 18 21 21 22 24 23 24 25 25 25 24 24 25 25 26 26 25 24 24 24 24 23 23 22 21 22 23 24 25 25 26 26 26 26 25 24 25 26 26 26 25 23 21 21 21 20 20 21 20 20 21 22 22 21 20 22 25 26 26 27 27 26 25 24 24 24 24 23 22 22
15 16 16 16 16 16 17 19 20 19 18 19 19 19 18 16 16 18 19 20 21 22 24 24 25 25 25 24 24 25 25 24 25 25 25 24 23 24 24 24 24 23 21 21 22 21 22 24 26 25 25 26 25 24 23 24 25 24 23 22 20 20 20 20 20 20 20 20 21 22 21 20 21 23 24 25 26 26 25 25 24 24 25 24 23 22 21 21
15 16 17 17 17 18 19 19 19 18 18 18 18 17 16 15 17 19 20 20 21 23 24 24 24 25 25 24 24 25 24 24 25 25 24 24 23 23 23 24 24 24 23 22 21 21 21 22 24 25 24 25 26 25 24 24 24 24 25 23 21 21 20 20 20 20 20 20 21 21 21 20 21 22 23 25 25 24 24 24 24 24 24 23 22 21 21 21
16 16 16 17 17 18 19 19 19 18 17 17 17 16 16 16 17 19 19 20 22 23 24 24 24 24 24 25 25 26 24 23 25 25 24 24 23 23 23 24 25 25 23 21 21 22 21 21 24 26 25 25 25 26 26 26 23 24 25 24 21 22 21 20 20 20 20 20 20 21 21 21 22 23 24 25 25 24 24 24 25 24 22 21 21 20 20 20
16 16 16 16 17 19 19 19 19 18 17 17 16 16 16 17 19 19 20 22 23 23 24 24 24 22 22 23 24 25 25 24 24 24 24 25 24 24 24 25 26 26 24 22 22 22 21 21 24 26 26 26 26 26 27 25 23 23 24 22 23 25 23 21 20 21 20 20 20 21 21 21 22 22 24 26 25 24 24 24 24 23 21 21 20 20 19 20
14 14 15 16 17 19 19 20 19 18 17 16 15 16 17 19 20 21 22 23 23 24 24 22 22 22 21 21 22 24 25 24 24 23 23 23 24 24 25 25 26 26 25 24 22 22 21 21 23 25 24 26 27 27 27 26 25 23 22 23 25 25 24 22 20 20 20 19 20 21 20 21 21 21 23 25 25 23 23 24 23 22 21 20 20 19 19 19
12 12 14 16 19 19 19 19 19 18 17 16 15 17 18 19 21 22 22 23 23 24 23 21 21 21 21 21 21 23 24 23 23 23 22 22 23 23 24 25 25 26 26 24 23 23 23 21 22 25 24 25 27 26 25 26 27 25 24 25 24 22 21 21 20 20 20 19 20 20 21 20 20 21 22 23 24 23 23 23 22 21 20 20 19 19 19 19
12 12 15 19 21 20 19 19 18 18 17 16 15 17 19 20 21 22 22 23 23 23 22 22 22 22 22 22 21 22 23 22 23 23 22 22 22 22 23 24 24 25 25 25 23 23 23 21 21 24 24 24 25 24 22 23 25 26 25 25 24 22 21 21 21 21 20 20 20 20 20 20 20 21 21 22 23 23 23 22 21 20 20 20 20 19 19 19
13 14 16 20 21 21 20 20 18 18 17 16 16 17 19 20 21 22 23 23 23 23 22 22 22 22 22 23 22 22 23 23 23 22 22 23 22 21 22 24 24 24 25 25 24 23 23 21 20 22 23 22 22 23 23 23 24 24 23 22 23 22 21 21 21 21 20 20 19 19 19 19 21 21 21 23 24 22 22 22 21 20 20 19 19 19 19 18
12 14 17 20 21 21 21 19 18 17 17 17 17 18 19 20 21 22 23 23 24 24 23 22 22 22 22 22 22 23 23 23 23 22 21 22 22 21 22 24 24 24 24 23 23 22 21 21 20 20 21 21 21 23 24 24 24 23 22 22 22 22 21 21 20 20 20 20 20 19 19 19 21 21 21 22 23 21 21 21 20 20 19 19 19 19 19 18
12 14 18 21 21 21 20 18 17 18 17 17 18 19 20 21 21 22 23 23 24 24 23 23 22 22 22 22 22 23 23 22 22 22 21 21 21 21 22 24 24 24 23 22 21 21 21 21 20 20 20 21 22 23 24 24 24 24 24 24 23 22 21 20 19 20 20 20 20 20 19 20 21 21 22 23 23 21 20 20 20 19 19 18 19 19 19 18
13 14 17 20 21 21 19 17 17 18 18 18 19 20 21 21 21 22 23 23 23 23 23 23 23 22 23 23 23 23 22 22 22 23 22 21 21 22 23 23 23 23 22 21 20 20 20 21 20 20 20 21 22 23 24 24 24 23 23 24 23 23 21 21 20 20 20 20 20 20 19 20 21 22 22 23 23 21 20 20 19 19 18 18 18 19 18 18
13 14 16 19 20 20 18 16 17 17 18 19 20 20 21 21 22 22 23 22 22 23 22 23 23 22 22 22 22 22 22 21 22 23 22 21 21 22 23 23 22 21 21 20 20 20 20 20 19 19 19 19 20 21 21 22 22 21 21 22 23 22 22 21 21 21 20 20 20 20 19 19 21 22 22 22 21 19 19 20 19 19 18 18 18 18 18 18
13 14 16 18 20 20 18 18 18 17 18 18 19 19 20 21 22 22 22 22 23 22 21 22 23 22 22 22 21 22 22 21 21 22 22 21 21 22 23 22 21 20 20 21 21 21 20 19 19 18 17 17 18 19 19 20 20 20 21 21 22 22 21 21 20 20 19 19 20 20 19 19 20 21 21 21 20 19 20 20 19 18 18 18 18 18 18 18
14 14 15 16 17 18 18 19 19 18 18 18 18 19 19 19 21 22 22 22 22 22 21 21 22 22 21 21 20 20 21 22 21 21 22 21 21 22 23 22 20 20 20 21 21 20 19 18 19 18 17 17 18 18 20 20 19 20 20 21 21 21 21 21 20 19 19 19 19 19 19 19 20 20 21 21 20 19 20 19 18 18 17 17 18 17 18 19
14 14 13 12 14 16 17 17 18 17 18 18 18 18 19 19 20 21 21 21 21 21 20 21 21 21 20 20 20 19 20 21 20 20 19 19 20 22 22 21 20 20 21 21 21 20 18 18 18 18 18 18 18 19 20 20 20 20 20 20 20 20 20 20 19 19 19 18 18 19 20 19 19 20 20 21 20 20 19 19 18 17 16 17 17 17 18 19
13 13 13 12 12 14 14 15 17 17 17 18 18 18 18 18 18 19 20 20 20 20 19 19 20 20 19 20 19 19 19 19 18 17 17 17 18 20 21 20 20 20 21 20 21 20 18 17 18 18 18 19 19 19 20 20 20 20 20 20 20 20 20 19 19 19 19 19 18 19 20 20 19 19 20 20 20 20 20 19 19 18 17 18 18 18 18 18
11 11 12 12 12 13 13 15 17 17 17 17 17 17 18 18 18 18 19 19 19 18 18 17 17 18 18 18 17 16 17 17 16 16 16 17 17 18 19 19 19 20 20 20 20 20 18 17 18 18 18 18 18 18 19 19 19 19 19 20 20 20 19 19 18 18 19 19 19 19 19 18 18 18 19 20 20 20 19 18 18 18 18 18 18 18 18 18
10 10 10 11 11 13 14 15 16 16 16 16 16 16 17 17 17 18 18 18 17 17 17 16 15 16 17 16 15 14 15 15 15 16 16 16 17 17 18 18 19 19 19 19 19 19 18 17 18 18 17 16 17 18 18 18 18 18 18 19 19 19 18 18 18 17 17 17 17 17 17 17 16 17 18 19 19 19 17 17 17 17 17 17 17 17 17 18
9 10 10 10 10 12 14 14 15 15 14 14 15 16 16 16 16 16 17 17 16 16 16 15 14 15 15 14 13 13 14 15 15 16 17 16 16 17 17 18 19 18 18 19 18 18 17 17 18 17 16 15 17 17 17 17 17 17 17 17 18 18 17 17 17 16 16 16 15 16 16 15 16 17 17 18 18 17 17 17 17 16 16 15 15 15 16 16
9 9 10 10 11 12 14 15 14 14 14 14 15 16 16 15 15 15 15 15 16 15 16 15 14 14 13 12 13 13 14 15 15 16 17 17 17 18 18 18 18 18 18 18 18 17 17 17 17 16 15 15 16 17 16 16 15 15 16 16 16 17 17 16 16 16 16 16 15 15 15 15 15 15 15 16 17 17 17 16 15 15 15 15 15 14 14 15
Height
790 790 789 788 787 787 786 785 784 783 783 782 781 781 780 779 778 777 776 775 775 774 774 773 772 772 771 769 768 767 765 763 762 763 760 751 750 753 753 755 755 755 757 757 758 759 758 759 758 758 759 759 759 758 756 754 752 757 764 772 778 775 768 757 751 747 742 741 735 730 727 730 732 726 721 720 724 726 728 733 734 732 732 733 736 741 749 756
789 789 788 787 787 786 785 784 783 783 782 781 780 780 779 778 777 776 775 774 774 773 773 772 771 771 769 768 767 766 765 762 762 760 752 746 750 752 752 754 754 755 756 757 757 757 758 758 756 757 759 760 758 756 757 753 752 759 764 770 772 765 757 747 743 741 739 740 734 729 728 729 731 729 725 729 734 730 735 743 740 741 743 741 742 746 752 756
788 788 787 786 785 784 784 783 782 782 781 780 779 779 778 777 776 775 774 774 773 773 772 771 771 770 768 768 767 766 764 762 761 754 745 744 748 749 751 753 753 755 755 756 756 756 757 755 754 755 758 761 758 756 758 754 753 756 760 769 765 755 750 742 739 739 737 734 733 732 729 729 728 726 727 733 737 733 740 747 746 750 750 748 748 748 752 756
787 787 786 785 784 783 783 782 781 781 780 779 778 778 777 776 775 775 774 774 773 772 771 771 770 769 768 767 766 766 764 763 756 747 743 744 745 747 749 751 752 754 754 754 755 756 755 754 753 753 757 761 757 755 757 754 753 753 756 764 757 750 750 742 738 738 734 731 733 734 732 733 729 725 728 732 739 740 740 742 744 749 748 748 749 749 752 755
787 786 785 784 783 782 781 781 780 779 779 778 777 776 776 775 775 774 773 773 772 771 770 770 769 768 767 766 766 765 765 763 752 742 743 744 744 746 748 750 751 752 753 754 755 755 755 754 753 753 756 760 758 757 757 750 749 752 752 753 749 748 750 741 735 735 732 731 734 735 736 735 729 728 730 731 740 744 738 734 736 742 744 746 748 750 752 754
786 785 784 783 782 781 780 779 779 778 778 776 776 775 774 774 773 773 773 772 771 770 770 769 768 767 767 766 766 765 765 760 747 742 744 743 744 746 747 749 750 751 752 754 755 755 755 753 754 756 756 758 758 758 755 746 744 753 752 746 745 744 745 738 732 732 730 731 735 736 734 731 733 734 729 729 738 739 731 729 734 740 744 747 750 753 755 757
785 784 783 782 780 780 779 778 778 777 776 775 775 774 774 773 772 772 771 771 771 770 769 768 767 767 766 765 765 765 766 756 743 743 744 743 745 745 747 748 749 751 752 753 754 755 754 754 755 755 757 758 757 755 751 745 743 751 751 745 742 739 739 735 732 732 730 732 732 730 731 732 737 737 729 730 736 734 729 729 736 742 745 750 756 760 762 764
784 783 782 780 779 778 778 777 776 776 775 774 773 773 772 772 772 771 771 771 770 769 768 768 767 767 765 765 764 765 764 752 742 743 743 743 745 745 747 747 748 750 751 753 753 753 754 754 753 753 757 757 753 751 747 746 746 747 748 743 739 737 735 732 731 731 730 730 730 730 735 735 734 732 730 733 736 733 730 732 738 744 748 754 761 765 768 770
783 782 781 779 778 777 777 776 775 775 774 773 773 772 771 771 770 770 770 770 769 769 768 767 767 766 766 765 765 764 754 743 741 743 743 744 744 744 746 746 748 749 751 752 751 752 754 753 750 748 754 752 749 748 745 750 750 742 740 738 737 737 733 732 732 730 730 729 730 735 738 735 729 730 734 733 736 735 732 736 741 746 753 758 763 767 769 772
782 781 780 778 777 776 776 775 774 773 772 772 771 771 770 770 769 769 769 769 768 768 767 767 767 766 767 765 767 764 748 740 742 742 743 744 744 744 746 746 747 749 750 750 749 750 750 749 745 742 747 748 747 746 744 748 745 735 734 734 734 735 732 732 733 730 730 729 730 736 739 734 727 734 740 734 733 735 735 741 744 750 757 761 765 768 769 771
780 780 779 777 776 776 775 774 773 772 772 771 770 770 769 768 768 768 768 768 768 768 767 767 766 767 767 766 769 763 745 740 742 741 743 744 744 745 745 746 747 748 749 748 748 746 745 743 739 741 746 746 745 745 742 739 737 733 733 736 735 735 734 733 733 731 731 732 729 732 736 733 729 736 739 732 730 731 737 744 747 752 758 762 766 768 769 770
779 779 777 776 775 774 774 773 772 771 771 770 769 768 768 767 767 767 766 767 767 767 767 767 767 767 767 767 766 754 741 741 741 740 743 743 745 745 744 746 746 747 747 746 745 742 742 739 738 744 747 745 747 748 742 734 734 734 734 742 741 738 738 734 733 731 732 734 726 729 742 741 735 735 729 725 727 728 736 745 747 753 757 761 765 768 769 769
778 777 776 775 774 774 773 772 771 771 770 769 768 767 767 766 766 766 766 766 766 766 766 767 767 766 768 764 752 743 740 742 741 741 743 744 745 745 745 746 745 745 745 744 743 741 740 738 739 744 743 745 749 746 739 733 735 736 736 743 745 748 746 735 732 732 732 732 722 731 753 750 736 730 723 721 724 729 738 745 748 753 756 760 764 767 769 769
778 776 774 773 773 772 771 771 770 770 769 769 768 767 766 765 766 765 765 765 765 766 766 766 767 767 769 758 742 740 741 740 741 741 743 744 744 745 745 744 744 744 743 743 742 740 739 736 738 741 741 744 745 741 741 740 738 739 743 744 748 758 751 733 732 733 733 729 719 733 756 751 735 729 723 719 722 728 737 745 748 752 755 760 764 766 769 769
776 774 773 772 772 771 770 770 769 769 768 768 767 766 765 765 765 764 765 765 764 766 765 766 766 767 768 756 741 739 740 740 741 740 742 743 743 743 743 743 744 743 743 742 741 740 738 737 740 746 746 742 742 747 751 749 743 742 753 756 753 758 750 734 729 728 731 727 719 734 753 747 734 729 722 717 720 727 736 743 747 751 755 760 763 765 768 768
775 774 772 771 770 770 769 769 768 768 767 766 766 766 765 765 764 764 764 763 765 765 765 767 765 767 767 754 741 739 739 739 739 739 741 741 741 741 741 742 742 742 742 741 740 740 738 739 742 746 747 746 748 754 756 758 754 746 754 761 756 755 751 740 727 719 723 726 724 733 744 742 733 727 721 716 721 729 738 744 746 750 754 758 761 763 765 767
774 773 771 770 769 769 768 768 768 767 766 766 765 765 765 764 763 764 763 764 765 764 765 765 764 767 761 747 742 740 736 737 737 738 739 739 740 740 740 741 741 741 741 740 740 740 739 741 745 746 747 749 750 755 765 773 768 756 753 755 752 749 748 742 730 718 718 725 729 731 735 738 733 727 722 718 722 732 740 744 746 749 753 756 759 761 764 766
773 772 770 769 768 768 768 767 767 766 766 765 764 764 764 763 763 763 763 764 764 765 767 764 766 771 758 742 741 738 733 735 735 736 738 738 738 739 739 739 739 740 742 743 742 742 744 743 746 751 753 753 752 757 772 774 764 760 756 754 752 747 742 739 732 722 719 725 731 735 737 736 733 727 724 720 721 733 741 743 745 748 752 756 758 760 763 764
773 771 770 769 768 768 767 767 766 766 765 764 764 763 762 762 762 762 763 764 764 765 763 760 761 761 748 735 734 732 731 732 734 735 736 736 737 738 737 737 738 741 746 750 747 744 746 748 752 759 760 757 753 754 760 757 751 753 752 751 753 749 739 729 725 718 718 727 732 736 739 737 735 729 726 722 719 731 742 745 749 751 753 755 757 759 760 762
773 771 769 768 768 767 766 766 766 765 764 764 764 763 762 762 761 762 763 762 760 755 751 749 750 746 738 731 729 730 731 731 733 734 734 735 736 737 737 737 739 743 747 751 750 744 744 755 761 760 758 753 749 746 746 745 744 746 748 749 748 748 739 723 720 717 714 728 734 732 734 733 733 730 726 723 722 732 742 745 751 753 754 755 757 758 758 760
773 771 769 768 767 766 766 765 765 765 764 763 764 764 763 760 761 761 759 756 751 746 744 742 742 742 735 730 728 727 730 733 733 732 733 734 734 739 741 740 745 750 747 746 747 742 745 760 760 751 748 745 742 741 740 742 743 745 748 750 748 749 742 725 723 721 712 726 736 732 734 734 732 732 729 724 724 733 739 741 747 751 753 755 755 757 757 759
773 771 769 768 767 766 765 765 765 764 763 763 763 763 760 756 756 754 753 754 747 741 742 738 737 738 731 727 727 726 730 736 737 733 732 732 735 742 743 742 749 751 745 744 748 750 755 759 750 741 740 738 738 738 739 742 743 746 748 752 753 748 742 732 726 724 718 727 736 733 737 739 734 730 729 726 725 730 734 734 738 743 750 755 755 755 756 760
774 771 769 768 766 766 765 764 764 763 762 762 761 760 756 752 752 750 752 756 749 738 736 736 735 735 730 726 723 724 731 736 738 734 728 731 736 739 742 745 748 748 746 747 751 758 761 752 738 734 735 736 739 737 739 743 744 747 748 753 755 746 747 747 736 729 726 729 735 736 739 740 735 730 728 727 724 726 729 729 732 736 742 749 752 751 753 757
773 771 770 767 766 766 764 764 763 761 761 759 758 756 752 751 751 751 752 756 752 737 729 729 728 730 728 724 720 725 731 730 732 731 726 730 735 737 740 743 745 747 746 743 745 751 751 738 729 732 734 735 740 739 740 747 750 749 747 750 751 744 746 749 740 734 734 734 733 738 749 746 737 737 735 728 725 726 726 725 729 733 737 744 747 749 750 752
773 771 769 767 766 764 764 764 761 760 761 759 756 752 750 752 751 751 753 759 757 737 726 725 723 723 721 720 721 721 726 727 725 724 721 725 731 735 737 737 742 748 743 737 741 746 742 730 726 732 735 735 740 742 741 747 753 752 746 743 743 740 741 743 741 740 748 753 740 741 766 763 740 738 739 730 727 729 726 724 728 730 735 743 747 748 749 751
773 771 768 767 766 764 764 762 759 761 760 757 754 751 751 752 750 751 755 768 765 738 726 726 723 721 717 719 719 719 730 729 717 716 718 721 724 728 736 736 736 740 737 733 736 739 735 728 726 732 736 737 741 744 740 741 753 758 745 736 737 738 740 742 742 747 760 762 743 740 767 773 752 742 739 732 730 731 728 726 727 727 732 741 746 748 750 752
772 770 768 767 765 764 764 760 759 760 758 755 752 751 752 750 751 750 758 780 769 733 725 728 722 720 717 716 715 724 739 729 713 713 713 719 721 721 735 739 735 735 729 732 742 738 730 730 730 731 735 739 744 746 739 737 752 756 739 732 736 737 740 741 741 748 752 750 745 742 753 769 766 749 737 733 735 736 732 729 728 727 729 736 743 746 748 750
772 769 768 766 764 764 762 761 760 758 756 754 751 752 751 749 751 752 768 788 762 722 722 726 718 716 715 714 714 723 729 720 722 721 708 715 721 722 735 736 735 736 727 736 751 739 727 732 733 732 737 743 743 741 735 735 746 745 732 732 735 734 738 739 741 747 745 749 761 754 748 768 772 749 736 735 739 741 736 731 729 729 731 734 739 743 746 749
770 768 767 765 764 763 761 762 760 756 754 752 752 753 750 751 752 757 778 783 747 718 721 722 718 718 717 718 719 721 720 717 725 721 709 716 719 720 732 731 731 736 730 734 743 734 725 726 726 729 738 741 737 733 730 734 740 735 729 732 733 734 737 739 746 749 749 761 772 760 752 771 775 752 741 742 742 742 737 732 731 733 736 738 740 745 748 749
769 767 765 764 763 762 762 761 757 754 753 752 754 753 750 754 758 774 791 774 740 725 721 722 723 720 721 726 726 723 723 721 719 716 716 720 718 719 725 724 727 735 734 732 733 728 721 718 719 724 730 731 730 729 727 730 731 728 730 735 738 740 739 743 746 747 760 774 771 757 751 765 777 760 744 744 741 737 735 733 735 737 739 741 743 745 747 749
766 766 764 762 762 762 762 759 754 754 754 753 754 752 754 759 765 786 788 755 736 731 722 724 725 718 721 729 730 725 725 724 718 719 724 723 724 727 728 731 733 738 742 739 735 728 722 724 724 720 721 723 727 730 727 725 725 727 733 741 750 754 750 754 755 754 774 782 767 756 752 762 778 765 743 740 735 730 732 734 736 740 742 743 745 747 749 751
764 763 762 760 760 760 759 756 752 754 754 754 754 753 760 770 776 783 770 746 743 738 724 725 723 718 721 724 727 725 725 726 720 721 726 728 732 732 734 740 740 747 754 748 742 737 731 729 725 721 719 719 729 736 733 729 727 731 737 745 762 772 772 776 775 771 781 779 762 757 760 767 771 755 740 737 732 728 730 731 735 739 742 744 745 749 752 753
761 759 758 757 756 755 754 753 752 754 754 753 755 755 765 782 782 770 758 751 748 733 722 723 718 716 719 724 727 723 723 726 721 722 725 727 733 734 732 733 732 744 752 748 747 748 743 732 723 725 725 720 727 739 744 740 735 737 741 750 767 779 788 792 786 781 783 776 762 755 764 774 766 749 741 736 731 729 730 733 735 735 738 742 745 749 752 753
758 756 754 753 752 751 750 751 752 754 754 753 757 762 773 785 775 757 753 751 739 725 722 723 720 718 717 721 724 720 724 727 719 721 726 726 734 737 734 730 727 733 741 745 748 749 755 751 732 728 729 724 725 730 737 737 736 738 734 741 757 766 779 789 785 785 786 779 769 763 771 780 770 754 743 735 733 732 733 735 736 736 739 742 745 749 752 754
755 753 751 749 748 747 747 749 750 753 755 755 761 770 778 779 766 756 753 744 733 727 722 719 721 726 723 719 717 713 720 726 719 720 725 726 733 736 733 730 725 727 736 749 749 743 753 752 730 720 721 722 725 723 721 729 740 738 729 738 752 750 758 772 774 774 777 780 776 768 770 769 759 750 739 734 736 736 736 737 738 741 744 745 749 752 754 756
753 751 749 747 745 743 744 747 748 751 754 757 767 773 772 765 756 751 744 732 728 726 724 723 724 731 733 727 721 715 713 719 722 725 726 724 727 727 726 723 719 721 729 741 746 745 753 749 727 721 721 717 721 721 717 728 741 739 736 743 742 733 742 763 771 765 770 785 781 767 766 762 755 752 741 734 738 739 739 740 741 746 748 750 755 756 758 760
751 749 747 744 741 741 742 744 746 750 753 759 770 770 761 752 744 740 733 725 724 720 724 735 734 735 740 737 731 722 717 720 722 726 730 728 726 724 720 718 714 716 721 729 739 742 749 751 732 725 729 718 712 718 717 719 729 739 745 741 733 732 739 754 772 774 778 790 781 766 768 768 767 764 748 737 741 744 742 741 744 749 750 754 758 759 761 762
750 749 745 738 736 738 740 742 745 749 753 760 768 763 753 746 738 733 729 725 724 722 727 737 736 734 738 742 740 727 722 728 726 726 732 732 730 726 721 720 715 714 717 724 736 736 741 754 741 724 730 724 712 721 729 722 720 730 737 731 735 753 758 757 770 780 785 792 783 768 765 767 769 766 756 748 746 745 743 743 747 751 752 756 758 760 763 764
751 751 743 731 729 734 738 742 744 747 754 763 767 760 749 743 736 730 728 726 724 726 730 731 730 731 731 735 739 730 725 730 729 729 733 733 733 730 725 724 720 718 718 721 733 735 737 755 754 730 725 728 723 730 741 737 726 726 731 730 734 749 759 758 761 768 777 786 785 776 770 773 770 763 759 753 746 747 747 746 750 752 753 756 758 761 764 766
751 752 743 727 726 732 735 739 743 749 756 760 760 755 745 740 733 725 723 723 722 724 728 728 728 733 731 727 731 729 726 728 728 732 734 730 733 734 728 724 723 723 721 722 730 735 737 752 759 742 731 736 740 737 738 739 736 736 742 744 743 745 750 755 756 759 768 779 785 786 785 780 765 757 757 750 743 748 751 750 753 755 754 756 758 761 764 766
752 753 742 726 725 729 733 741 746 750 755 755 753 750 743 737 732 725 720 718 718 718 721 725 728 732 732 729 728 725 725 727 728 733 738 735 738 741 732 723 722 723 726 730 734 739 745 753 759 756 749 750 747 735 729 732 734 739 743 744 747 748 752 765 771 766 766 773 778 784 790 780 758 751 753 747 745 750 752 754 758 758 759 760 760 762 764 766
755 752 740 729 729 729 734 746 748 747 751 751 747 744 739 733 730 726 721 717 717 717 717 722 725 727 727 727 727 724 724 728 728 731 737 738 739 740 732 723 721 722 727 737 741 741 745 751 759 761 756 751 742 730 728 730 729 732 734 735 740 744 752 771 780 772 767 768 767 773 784 776 757 750 749 745 747 751 754 758 761 761 762 763 762 763 765 767
756 750 737 732 732 731 739 750 749 747 747 744 739 736 733 730 728 724 720 719 720 719 720 721 723 725 724 723 724 725 726 729 728 726 730 735 736 735 731 727 725 725 730 741 745 744 745 751 760 762 755 748 740 732 729 728 730 737 737 734 737 743 749 759 764 763 765 766 765 774 785 775 757 749 748 747 748 752 755 757 761 765 765 764 765 765 766 768
755 750 740 735 734 733 742 752 751 749 746 740 737 735 730 727 725 723 721 721 722 722 724 723 721 724 725 723 725 727 728 733 731 726 729 735 735 731 730 730 729 732 738 744 746 747 752 756 761 768 771 766 758 752 747 742 743 750 749 742 741 743 747 752 754 759 767 767 763 774 786 777 758 750 751 752 754 760 761 758 760 764 766 767 767 767 768 770
755 750 741 736 734 735 740 744 745 747 745 741 740 737 733 729 723 720 720 721 720 722 727 726 721 723 724 724 728 728 726 731 734 728 727 732 732 729 728 730 733 737 740 741 740 744 754 759 761 772 782 782 777 773 767 760 756 755 752 749 746 746 749 753 758 768 776 772 765 772 782 777 762 755 755 755 759 764 763 762 764 766 769 771 770 770 771 772
756 753 749 744 739 737 739 738 739 743 743 743 742 737 735 734 726 719 719 722 721 722 726 727 722 725 728 729 735 736 730 728 732 732 732 733 733 729 727 730 735 739 740 739 740 745 755 761 761 767 774 776 775 770 761 759 761 760 756 753 751 751 751 754 763 772 775 775 772 772 774 775 769 764 761 759 762 766 764 765 769 770 773 775 773 773 774 774
758 758 760 761 754 746 745 742 741 743 742 741 743 738 735 735 731 726 724 725 726 727 730 729 726 730 735 735 738 742 738 733 735 739 742 741 736 730 729 732 737 739 739 740 742 748 760 765 762 763 766 765 765 761 756 756 760 760 758 756 754 754 755 760 768 769 768 775 779 769 764 771 771 766 763 762 763 766 766 768 770 772 775 776 774 774 775 775
765 763 763 767 765 759 757 750 744 744 742 739 740 740 738 739 738 737 733 729 730 733 738 739 735 735 739 738 740 744 743 742 747 751 752 751 746 741 737 738 740 740 740 742 743 748 761 767 762 762 764 761 760 759 757 758 758 757 757 757 756 756 758 763 766 764 763 771 774 766 762 767 768 764 763 761 760 762 764 766 769 771 772 772 772 773 774 775
772 771 766 765 767 764 760 753 745 744 745 743 742 742 742 743 743 741 738 738 740 740 744 751 750 745 745 745 748 754 755 756 760 759 756 755 754 751 749 748 745 742 742 746 746 747 758 766 762 762 766 765 763 763 761 760 760 758 757 757 756 758 760 764 766 765 765 766 767 766 767 771 772 769 765 761 758 759 763 767 770 772 772 772 772 772 772 773
781 781 776 771 769 763 758 755 749 748 750 749 749 748 744 745 746 743 740 744 751 749 748 756 758 753 752 754 758 765 766 764 764 762 758 759 758 755 754 753 750 747 747 750 750 750 757 764 761 762 770 772 767 765 764 763 763 763 762 760 759 760 763 765 767 769 770 772 771 769 772 777 777 771 766 763 761 762 767 770 771 774 775 775 776 775 774 772
785 784 782 780 775 765 759 757 753 754 758 757 756 753 751 753 753 749 746 747 754 755 753 758 761 758 759 763 766 768 767 764 764 760 757 758 758 756 756 753 751 753 753 753 755 756 759 763 761 764 776 778 770 768 768 766 768 770 769 767 764 764 768 770 772 773 774 777 778 776 780 785 779 772 769 767 766 768 771 772 772 775 777 778 780 781 779 777
785 782 780 781 778 767 760 758 756 759 763 762 759 756 756 759 758 757 757 755 755 758 757 758 762 764 768 772 772 770 767 764 762 759 755 755 754 753 753 751 750 754 756 755 758 759 760 764 766 769 779 779 771 770 772 774 778 779 776 774 770 767 769 771 773 775 775 777 781 783 786 785 779 777 777 774 772 772 771 772 774 776 777 778 780 782 781 780
Wind_Speed
11 11 11 11 11 11 11 11 10 11 11 11 11 11 11 11 12 12 12 12 11 11 12 12 12 12 13 13 14 14 16 16 15 12 12 16 13 8 7 8 5 3 6 9 10 8 8 9 12 15 12 8 4 3 6 6 4 4 2 4 4 5 6 6 8 7 3 1 4 5 5 5 5 5 4 4 3 1 1 9 9 9 9 12 20 31 34 30
12 12 12 12 12 11 11 11 11 11 11 11 11 11 11 12 12 12 12 12 11 11 11 12 12 12 12 12 13 13 16 16 14 15 19 18 14 11 12 14 8 4 7 10 12 10 8 7 10 12 7 3 3 4 5 4 4 4 2 4 5 6 7 9 12 9 6 3 3 4 5 4 4 4 3 3 3 4 3 9 12 13 14 16 22 29 31 31
13 12 12 12 12 11 11 11 11 11 11 11 12 12 11 12 12 11 11 11 12 11 11 12 12 12 12 12 11 12 14 14 9 12 14 11 15 16 16 18 13 9 10 12 13 14 13 12 12 10 5 4 4 4 5 4 3 5 4 4 5 6 8 11 13 10 8 4 4 5 6 5 4 4 1 2 6 6 2 6 10 12 15 16 18 21 26 27
13 13 12 12 12 12 12 12 11 11 11 11 12 11 11 12 11 12 11 11 12 11 11 11 11 12 11 11 10 11 11 8 3 6 5 3 13 15 16 17 14 12 13 14 14 15 16 17 13 8 6 5 5 5 6 4 3 4 5 6 6 6 9 12 13 9 6 5 6 5 7 5 6 6 1 2 5 5 3 5 11 14 16 17 17 17 20 20
13 13 12 12 12 12 12 12 12 12 11 11 12 11 11 11 11 11 11 11 11 11 11 10 11 11 10 10 9 9 7 2 1 4 2 5 10 12 16 16 13 13 13 13 12 13 17 16 12 7 5 4 5 5 6 7 6 4 5 8 9 8 9 12 12 6 5 6 7 5 6 4 6 6 1 1 1 2 2 6 15 17 16 16 16 15 16 17
13 13 13 12 12 12 12 12 12 11 11 12 11 11 11 11 11 10 11 11 11 11 10 10 10 9 10 9 6 6 3 1 4 3 4 7 9 11 14 14 13 13 11 10 10 11 12 11 9 6 3 4 6 6 7 8 7 5 6 7 9 10 10 10 11 5 3 2 4 3 5 4 5 5 2 1 2 4 4 10 16 15 14 13 13 12 13 14
14 13 13 13 12 12 12 12 11 11 11 11 11 11 11 11 11 11 11 11 10 10 9 9 9 8 10 8 3 2 1 5 10 4 5 7 9 11 12 11 11 11 10 9 10 9 9 10 8 4 4 4 6 7 9 9 8 7 6 7 9 10 11 9 9 7 2 1 2 4 6 7 7 5 4 2 7 12 14 17 17 14 14 14 12 9 9 11
14 13 13 13 13 12 12 12 12 11 11 11 11 11 10 11 11 11 10 10 10 10 9 9 8 7 9 9 2 1 2 8 10 6 7 7 9 10 11 11 11 11 11 11 11 10 9 10 7 4 5 5 6 8 9 9 8 8 8 9 9 9 10 9 9 10 5 1 2 4 6 9 9 5 5 2 10 15 17 19 17 15 16 15 13 11 10 11
14 14 13 13 13 12 12 12 12 12 12 11 11 11 11 11 10 11 10 9 9 9 9 8 6 5 6 6 2 2 3 6 6 6 5 6 8 11 13 11 12 12 11 13 15 13 9 7 7 6 7 7 7 9 8 6 5 7 9 8 7 7 9 10 11 9 5 2 1 5 8 9 8 4 6 2 12 15 17 19 17 17 15 14 13 11 11 10
14 13 13 13 13 13 12 12 12 12 12 11 11 11 11 11 11 11 10 9 8 8 8 6 5 4 5 4 2 2 4 4 4 3 3 6 8 12 14 11 12 13 10 13 15 14 10 9 9 6 7 6 6 8 7 6 5 6 6 5 5 6 7 10 10 6 4 5 6 6 7 9 8 4 6 3 15 16 17 18 17 16 14 13 13 11 11 10
14 13 13 13 13 12 12 12 12 12 12 12 12 12 12 11 11 10 9 9 8 8 7 6 5 4 5 5 1 2 5 4 5 3 4 6 9 13 14 11 13 15 13 12 15 19 17 16 11 3 4 3 4 7 7 7 8 8 7 5 6 6 7 8 8 6 5 5 8 8 8 10 8 6 6 7 17 17 18 18 17 17 13 13 13 10 9 9
15 14 13 13 12 12 12 12 12 12 13 13 13 12 12 12 11 10 9 8 8 7 5 5 4 4 4 4 5 7 7 4 7 9 7 6 8 12 12 12 13 16 17 12 15 20 17 16 10 3 3 4 4 5 5 8 7 8 8 4 5 7 8 10 7 7 6 4 7 7 7 9 7 7 10 10 14 17 19 17 15 15 13 12 12 9 8 9
15 14 13 13 12 12 12 12 12 12 13 13 13 13 13 13 12 10 9 7 6 5 4 4 2 2 4 2 8 9 6 6 7 11 8 7 8 9 9 12 14 17 21 16 15 16 16 15 6 3 5 6 5 4 7 11 6 6 6 3 3 5 8 10 7 9 9 7 7 6 4 7 9 10 9 9 13 16 17 16 13 12 11 11 10 9 8 9
15 15 13 12 12 12 12 11 12 12 12 13 13 13 14 13 12 10 9 7 5 3 2 2 2 1 1 5 12 11 6 7 7 9 9 10 11 12 13 15 15 16 19 19 17 17 16 10 3 3 5 5 5 6 8 9 5 4 3 3 2 3 8 8 8 11 10 8 8 8 4 6 9 10 6 11 15 16 15 16 14 10 10 9 9 9 7 7
15 15 13 12 12 11 11 11 12 12 13 13 13 13 13 13 12 8 7 6 4 1 1 2 2 2 2 7 14 11 9 7 7 10 11 13 14 13 13 15 13 12 13 15 16 17 16 8 3 3 4 6 7 6 6 5 4 2 2 5 3 4 9 7 9 13 13 8 8 9 4 6 8 7 8 9 12 16 14 15 14 12 12 10 9 9 8 6
16 15 13 12 11 10 10 10 11 12 13 13 13 13 11 11 9 6 5 4 2 2 2 2 5 5 2 4 7 5 9 9 10 12 13 16 16 13 13 12 10 11 13 15 14 14 12 3 1 3 4 6 6 5 4 4 5 2 4 6 5 6 8 7 9 15 15 7 8 10 4 5 5 3 8 6 10 16 14 13 13 12 12 11 9 8 8 7
17 15 13 11 11 10 10 10 10 11 12 12 13 11 9 9 8 5 4 2 0 2 4 4 3 5 4 6 6 4 8 11 13 15 15 16 18 17 13 10 8 11 12 13 12 10 6 2 2 3 3 4 4 3 3 4 5 4 4 5 5 7 7 5 6 10 13 7 7 9 6 5 3 2 8 6 10 15 15 14 13 12 11 11 10 9 9 8
19 16 13 11 10 10 10 9 10 11 11 12 11 9 9 9 8 5 3 1 2 1 5 8 4 1 4 8 7 6 11 15 15 15 16 16 18 18 13 10 7 8 7 6 8 6 2 2 2 2 3 3 4 3 4 5 4 3 4 4 4 7 7 5 5 6 11 8 7 8 7 6 4 3 8 7 8 14 14 13 12 11 11 10 10 10 9 8
21 18 14 12 10 10 10 10 10 10 11 12 10 9 9 8 5 3 1 2 2 0 2 4 5 3 3 7 11 12 11 15 14 13 15 16 15 15 12 9 7 6 5 3 5 5 3 1 2 3 4 5 6 6 6 4 2 4 5 4 4 7 7 6 8 8 9 7 6 8 8 7 5 6 8 9 9 14 14 11 10 9 9 9 8 9 10 10
24 20 16 12 10 10 10 10 10 11 12 11 8 7 6 4 2 0 3 4 5 7 7 5 8 7 8 6 7 14 11 12 10 10 15 14 11 9 7 5 5 5 5 4 5 5 4 3 4 6 7 9 8 5 4 2 2 4 5 5 7 7 7 2 7 9 6 5 4 5 5 7 5 6 7 8 8 14 16 14 12 10 9 9 9 9 11 11
26 24 19 14 11 10 10 10 11 11 11 9 6 3 2 4 3 2 1 6 10 13 14 12 12 12 14 13 6 11 8 7 6 8 14 14 9 5 3 4 5 4 5 6 5 3 4 5 7 9 10 9 6 3 2 2 4 4 4 5 8 6 6 6 5 4 4 6 1 3 3 6 5 5 6 5 8 12 17 16 15 14 11 10 11 11 11 9
27 25 22 16 11 10 9 10 10 11 11 7 3 2 4 8 8 8 5 4 8 12 15 16 16 13 17 23 15 13 7 5 6 7 12 13 7 5 4 6 5 5 5 6 5 3 4 6 10 11 9 5 3 2 3 5 5 4 4 4 6 5 5 6 4 4 6 4 2 6 6 6 6 7 7 2 7 9 14 17 17 16 12 10 11 11 11 9
26 25 24 18 12 10 9 10 10 12 12 8 6 6 7 13 13 12 7 3 7 10 12 13 15 12 14 20 14 14 6 5 7 8 13 13 7 6 5 5 7 7 6 6 6 4 4 7 12 11 7 4 1 2 6 6 5 2 2 2 5 6 4 4 4 5 5 3 3 6 6 6 6 7 8 3 3 5 9 15 17 17 15 14 13 12 13 12
25 25 24 20 14 10 9 11 12 13 14 11 13 13 10 14 12 9 5 3 5 8 10 12 13 11 13 14 8 10 5 5 7 9 16 14 6 6 6 6 6 7 7 9 10 8 7 7 6 5 7 6 2 3 3 3 4 4 4 3 5 8 4 1 3 3 5 5 4 6 6 6 5 5 6 6 2 4 6 10 12 12 14 14 11 12 14 14
25 24 24 22 15 10 10 11 10 11 11 9 15 17 12 11 7 8 5 2 4 5 7 10 9 10 15 14 9 9 6 6 8 8 15 16 9 6 5 5 5 6 8 11 10 8 9 6 5 6 4 3 4 2 2 4 1 4 4 6 7 9 7 2 1 3 5 5 3 4 3 5 6 5 7 7 3 2 5 7 8 8 12 15 12 11 12 11
24 24 23 23 17 9 8 6 5 9 10 9 15 17 9 4 6 9 4 1 4 4 5 5 5 10 14 11 7 6 4 6 10 12 14 18 14 7 5 4 3 7 9 8 4 3 5 4 5 6 4 3 3 1 2 4 2 3 4 5 5 8 9 6 2 3 3 3 3 5 5 3 6 6 7 6 4 4 4 7 7 6 11 15 12 10 11 9
23 23 23 22 18 9 4 5 9 11 8 10 16 17 9 9 10 7 4 1 4 3 5 1 2 7 8 8 8 5 2 5 7 11 13 18 14 6 5 5 3 6 5 1 2 3 2 3 3 5 5 2 1 2 4 4 3 3 5 4 5 6 7 5 3 1 3 2 3 2 6 2 3 6 7 5 6 6 4 6 7 6 7 14 15 14 13 12
22 23 22 22 19 9 7 9 12 10 8 11 18 17 13 14 11 5 4 1 3 1 3 1 1 4 4 7 10 6 6 7 3 4 13 20 13 3 5 8 5 6 6 1 4 5 2 3 5 5 4 2 3 4 6 5 5 6 7 5 4 4 6 5 3 2 2 2 3 3 4 2 4 6 7 5 5 3 5 5 5 4 3 10 16 14 11 10
22 22 22 21 19 10 8 11 10 8 11 12 14 15 14 13 8 4 3 0 3 1 2 1 2 3 2 5 9 7 8 7 3 4 12 16 12 4 3 6 4 7 8 5 6 5 3 4 7 6 4 3 4 6 7 6 6 6 4 2 2 3 5 6 4 2 2 3 3 6 1 1 3 6 5 4 4 3 4 5 5 8 9 10 13 12 10 10
22 21 21 21 16 8 7 11 11 10 13 11 12 14 12 8 4 3 1 1 3 2 3 1 0 3 5 5 7 8 9 7 4 6 7 6 6 3 1 2 3 4 5 6 5 4 4 2 3 4 4 4 4 5 6 7 6 3 4 2 3 3 4 5 4 1 4 2 4 6 3 2 3 5 4 1 4 6 5 5 7 10 11 10 10 11 10 8
23 20 20 21 15 6 5 7 8 10 13 9 10 10 7 4 2 2 1 2 4 2 2 2 3 6 8 7 5 6 8 8 5 5 5 2 2 3 1 2 2 2 4 6 5 5 5 0 1 2 5 4 3 4 5 6 5 1 4 3 3 4 4 3 4 4 3 3 5 2 3 2 3 5 5 4 4 4 6 6 9 11 10 9 9 10 8 6
24 21 19 20 17 13 10 10 7 9 12 10 8 5 2 2 1 3 2 3 4 3 2 2 5 7 9 8 6 6 6 6 5 3 4 4 3 4 4 3 3 0 3 4 3 5 6 3 3 2 4 5 2 2 5 6 5 2 4 4 3 3 3 2 3 2 1 5 3 3 6 2 4 5 6 6 2 4 5 5 10 12 11 10 11 11 9 8
24 22 20 19 18 18 18 17 14 9 10 10 5 2 2 1 2 3 2 2 2 1 4 5 5 7 10 9 7 8 7 5 6 5 6 7 5 5 7 8 7 4 3 3 2 2 4 5 4 2 2 4 4 2 1 4 3 1 3 4 3 2 0 2 2 1 1 4 4 3 4 3 4 3 7 7 1 7 9 7 9 11 11 10 11 11 10 9
25 22 19 17 18 20 19 18 16 10 8 8 3 1 1 2 3 3 3 4 4 5 5 6 8 10 8 7 6 8 7 6 8 7 7 7 5 4 6 9 9 6 4 2 1 1 1 5 5 3 2 6 5 5 6 4 3 4 4 5 4 4 4 2 2 1 2 3 5 2 2 2 3 3 8 6 2 9 11 9 8 9 9 10 11 11 10 9
24 20 16 15 17 20 18 16 14 11 7 5 1 2 3 3 3 2 3 5 6 8 7 7 7 8 6 4 6 9 7 6 8 7 5 6 5 4 4 6 8 6 3 2 2 2 2 4 6 4 5 9 4 3 5 2 2 4 2 4 3 4 5 3 3 4 3 1 3 2 2 4 3 4 8 1 7 9 10 9 8 8 10 11 10 9 9 8
23 19 14 14 18 19 16 14 14 13 6 1 1 2 4 4 4 3 3 5 7 6 5 4 4 4 4 2 5 8 7 6 7 6 3 3 5 6 6 5 7 7 4 4 1 0 2 5 6 3 5 9 4 3 2 3 1 3 2 1 4 5 7 3 1 3 2 2 2 3 2 3 1 3 6 3 7 7 9 9 7 8 10 11 9 8 8 7
24 18 10 13 18 17 14 12 15 14 6 2 3 3 4 4 6 7 6 8 10 8 4 2 1 2 3 2 5 6 4 5 5 5 1 2 3 4 6 6 5 6 5 6 1 1 1 4 7 4 2 5 6 3 2 2 3 1 2 3 1 2 4 4 1 1 1 1 3 4 4 2 1 3 4 5 6 5 8 8 8 10 11 11 9 8 8 7
21 12 10 17 22 20 15 12 16 13 4 2 4 4 4 5 7 8 9 10 11 9 3 0 2 3 2 1 6 7 1 3 1 3 2 1 2 3 4 2 3 5 5 7 3 2 2 2 6 5 4 3 2 3 1 4 2 1 4 4 2 3 1 1 2 1 1 1 3 4 4 2 3 2 3 2 5 6 7 9 10 10 10 10 9 9 9 7
12 5 6 14 16 16 18 18 16 8 3 3 4 3 4 6 9 11 12 11 10 8 3 1 1 4 4 4 5 7 4 1 1 1 1 3 4 3 6 4 2 4 6 7 3 1 2 1 4 6 7 7 5 2 2 2 4 2 4 4 1 3 3 1 2 3 3 3 2 3 3 2 1 2 4 6 4 4 5 6 9 10 10 10 8 8 7 6
6 2 5 12 13 14 21 20 11 4 3 4 4 4 5 7 9 11 12 11 8 3 1 2 3 2 3 2 5 6 4 3 3 2 2 2 2 2 2 2 0 2 4 5 3 1 3 2 2 6 8 7 4 1 2 2 0 1 1 2 2 0 2 1 1 1 3 3 1 1 1 3 4 3 4 6 2 6 6 6 6 6 9 10 8 8 7 6
4 1 6 9 2 16 20 13 4 2 3 3 4 6 7 7 9 11 12 12 6 1 2 4 4 4 4 4 3 4 2 3 4 0 1 4 5 2 3 3 1 4 4 3 2 2 2 2 1 3 5 3 5 7 5 4 2 1 1 3 2 1 3 3 3 3 1 2 3 3 1 5 5 2 3 5 6 6 7 8 7 6 8 8 8 8 7 6
2 1 8 3 17 23 12 4 2 3 3 4 5 7 8 8 9 10 10 10 6 0 0 2 4 5 5 3 3 3 2 1 2 2 4 3 2 3 5 8 4 4 5 4 3 2 1 3 2 1 3 4 8 10 10 9 8 4 2 2 3 2 3 5 1 3 1 1 1 3 1 4 5 4 3 5 6 5 8 9 8 6 6 7 8 7 7 7
1 4 15 9 14 16 5 1 4 2 3 5 7 9 10 8 9 9 8 5 4 3 2 2 3 4 3 2 3 3 3 1 3 2 3 5 5 3 6 11 9 7 5 3 2 3 2 3 2 2 4 5 8 11 10 9 8 5 3 2 2 0 2 5 4 3 2 2 1 2 0 4 5 5 3 5 5 5 8 9 9 7 5 7 8 7 7 6
3 4 9 9 7 7 3 3 4 4 4 6 8 10 10 9 9 9 6 3 3 4 3 3 3 2 3 5 5 3 2 1 2 3 0 4 7 6 1 4 8 7 4 2 2 1 1 1 2 1 3 5 6 6 7 8 6 3 3 5 4 3 5 4 2 3 2 2 2 4 1 4 4 5 6 8 9 8 7 7 9 8 6 6 6 6 7 6
4 3 3 5 6 4 2 3 3 4 4 6 7 6 6 7 8 7 5 3 3 3 5 4 3 3 3 4 6 5 1 2 0 3 2 2 6 6 6 6 9 6 3 5 5 3 1 1 3 4 2 1 1 0 2 5 5 3 4 7 6 6 7 4 3 4 2 3 3 4 2 3 4 7 8 9 11 8 5 6 7 6 5 5 6 6 5 5
3 2 3 4 2 1 2 3 3 3 5 5 5 5 4 5 6 7 7 3 1 4 5 6 5 4 4 4 4 6 5 3 3 4 4 2 2 4 6 9 9 7 5 7 7 5 2 1 2 3 5 4 4 3 3 4 4 4 6 8 7 5 6 4 3 2 1 1 3 1 5 2 2 5 7 7 8 7 5 6 7 6 5 5 6 4 2 3
3 1 4 4 4 4 3 4 4 3 5 4 2 3 4 4 4 4 4 3 5 7 6 6 5 3 4 4 2 3 5 6 6 6 7 6 3 2 7 10 9 7 6 6 5 4 3 1 1 1 2 3 5 7 8 8 6 6 6 8 7 6 7 5 2 3 3 3 3 2 4 2 3 1 2 4 6 5 4 4 5 6 5 4 5 5 4 4
4 1 3 4 3 4 4 5 5 6 8 6 2 4 5 5 5 4 3 2 4 7 6 5 6 7 8 7 3 2 2 3 5 6 7 7 6 4 5 7 6 5 5 4 3 5 4 1 3 2 3 5 6 7 7 7 7 7 6 6 6 6 8 5 3 5 3 2 5 4 2 1 4 1 2 4 5 6 5 5 5 6 6 6 7 7 6 6
4 2 4 5 3 4 6 7 7 6 7 6 4 5 5 5 6 5 5 3 4 7 7 6 9 12 13 12 8 4 4 3 3 3 4 5 4 4 4 4 2 3 4 3 1 4 4 2 2 1 3 5 5 7 8 7 7 7 7 7 6 5 6 5 4 5 3 3 5 2 3 3 4 5 4 2 3 6 7 7 7 5 2 1 3 5 6 6
4 2 4 5 5 5 5 7 7 4 5 7 6 6 7 8 7 5 4 5 4 4 5 7 10 12 13 14 12 8 7 6 4 4 5 5 5 4 3 2 2 2 3 2 1 3 3 2 1 2 3 5 5 6 8 8 7 7 7 7 6 6 6 5 4 6 5 3 4 5 8 6 6 6 6 6 6 8 10 9 8 6 6 6 5 3 2 5
9 7 6 4 4 6 5 5 4 3 5 6 5 5 8 12 13 8 6 9 10 8 6 7 10 9 10 14 12 8 9 9 6 5 5 4 4 4 3 3 4 5 4 2 2 3 2 1 0 4 3 3 4 5 7 7 7 7 6 6 6 6 5 4 3 4 5 4 7 9 7 3 5 6 7 7 7 9 8 7 7 7 8 9 8 7 4 5
15 11 9 4 3 5 4 4 6 5 4 6 7 7 8 11 14 11 5 8 13 13 10 10 11 7 7 11 10 9 10 10 8 7 5 4 5 5 4 5 5 4 3 2 2 2 3 1 1 3 2 2 2 4 7 7 7 5 4 6 6 3 4 5 5 6 6 5 5 6 3 2 4 8 10 9 8 7 6 6 7 8 8 9 9 9 8 7
Wind_Direction
328 326 325 323 320 318 316 316 314 313 314 313 314 315 315 314 310 309 310 309 312 311 312 315 315 318 317 318 318 321 328 325 320 304 261 249 243 232 255 266 276 220 214 252 256 247 258 237 227 240 247 252 235 216 256 256 253 254 205 216 243 243 249 252 250 261 254 278 4 12 33 38 14 14 8 15 68 220 357 75 74 57 70 102 113 123 131 130
327 324 323 321 319 317 316 316 315 314 314 313 314 313 313 313 311 312 312 312 313 311 313 315 316 317 315 318 323 332 336 323 305 280 262 256 242 231 238 245 252 224 217 240 243 232 240 234 217 224 231 239 229 209 218 225 230 231 207 208 224 234 245 259 261 279 318 323 359 19 43 37 1 18 9 339 336 322 32 87 87 81 85 96 109 119 126 128
325 323 320 319 319 316 316 315 315 316 314 314 314 313 314 313 313 313 313 315 313 312 313 313 316 316 316 320 330 344 333 316 296 265 271 261 226 221 230 241 242 232 234 239 239 231 238 247 228 212 209 228 231 222 216 199 213 220 216 234 242 249 257 265 270 291 310 311 20 25 17 1 355 14 321 340 345 329 16 111 109 109 116 118 120 123 127 127
324 321 319 318 317 315 315 314 313 314 313 314 313 315 315 313 315 314 315 316 312 313 313 314 318 316 320 326 337 349 325 308 286 250 277 223 208 209 217 230 233 235 243 244 244 245 260 271 256 223 205 224 227 233 237 210 210 213 198 225 246 259 270 271 278 305 333 2 30 17 2 353 346 345 274 35 1 329 2 133 141 137 136 133 131 131 129 120
323 320 319 317 317 316 315 314 314 313 312 312 312 313 312 314 316 314 315 315 313 315 314 316 315 316 325 331 346 348 328 322 264 233 170 164 193 199 210 223 232 238 239 239 246 258 269 274 267 247 217 228 232 233 244 223 214 231 221 223 236 248 263 273 280 308 30 20 13 4 349 334 318 318 272 70 273 259 301 149 145 143 141 137 134 131 125 118
322 320 319 315 314 314 313 312 312 313 312 312 312 311 311 313 312 311 313 312 317 317 316 316 312 322 331 335 350 346 339 230 297 268 157 157 180 196 210 221 228 227 225 230 242 259 268 263 258 253 227 232 236 242 254 238 210 227 252 236 239 243 248 268 282 296 61 23 347 344 323 317 303 295 274 315 104 112 104 116 122 128 125 117 116 120 121 120
322 321 318 314 313 313 312 311 310 310 309 310 309 309 310 311 310 310 310 312 317 316 316 316 319 334 338 346 358 329 252 262 288 266 177 170 181 197 208 213 213 207 202 214 232 243 256 256 246 234 240 236 231 245 256 255 231 225 246 243 245 252 255 269 282 294 359 91 354 340 323 313 296 294 298 312 98 98 92 95 101 104 100 94 88 85 91 95
321 320 315 313 314 313 311 310 310 308 307 308 306 307 307 307 308 307 308 310 311 317 318 315 325 340 348 0 356 266 235 255 261 217 187 188 189 195 196 196 197 193 192 212 231 239 253 255 236 222 244 237 228 236 244 255 252 234 233 239 245 256 270 282 283 290 312 27 14 318 293 282 277 286 296 300 110 107 97 97 99 93 90 89 82 76 74 70
321 319 315 313 314 312 311 309 307 306 307 308 307 307 306 305 304 302 304 306 307 315 315 314 325 342 360 356 323 311 268 232 210 180 179 196 191 182 182 184 191 186 192 220 235 244 256 249 226 216 228 245 249 247 251 255 252 237 230 229 231 248 276 285 278 280 294 288 215 258 258 258 268 276 277 230 117 113 105 104 103 98 96 91 89 89 87 84
322 319 314 313 313 311 310 308 305 304 307 308 308 308 307 307 304 302 302 303 306 307 311 323 331 352 360 313 275 327 266 190 139 143 168 185 173 168 174 180 188 185 202 228 233 240 248 244 239 223 227 249 259 263 275 266 267 270 255 251 244 247 262 269 269 260 270 262 214 230 254 253 248 227 261 168 122 117 108 107 106 102 100 97 98 97 96 96
324 319 313 312 312 309 307 303 301 304 305 305 307 306 308 308 305 304 299 299 301 299 306 324 345 6 342 301 242 264 251 171 127 127 144 162 164 170 175 183 193 192 209 232 235 237 240 246 259 256 235 285 303 277 273 265 279 292 295 296 284 285 275 274 282 272 272 252 207 214 248 258 245 213 232 163 130 125 116 113 113 110 109 105 102 101 100 102
327 318 313 312 310 309 303 300 300 302 303 304 307 310 312 315 315 309 300 296 294 295 304 320 6 25 334 299 229 244 258 220 151 136 145 167 178 180 176 183 198 203 213 230 242 244 247 256 284 336 283 323 316 278 285 293 291 274 282 302 296 305 285 274 277 269 270 250 206 205 244 265 261 229 215 176 136 126 119 115 114 112 112 110 105 107 108 113
329 320 315 313 311 308 302 300 301 301 302 305 309 313 313 317 321 313 301 294 285 288 298 311 20 11 331 269 242 255 269 247 170 141 156 183 193 195 195 197 201 215 225 240 260 273 271 258 278 325 295 308 294 301 313 306 296 248 262 276 280 300 273 258 246 247 248 238 206 185 242 263 264 251 210 152 126 125 120 116 116 113 113 113 112 114 118 124
330 324 320 315 310 304 301 300 301 302 303 307 311 312 313 320 325 318 303 292 283 278 282 319 67 49 303 249 277 283 259 235 178 162 178 189 205 208 216 222 223 231 237 250 268 291 292 270 287 309 291 294 284 311 313 303 299 269 291 287 236 245 260 243 221 232 228 226 193 170 233 253 265 265 183 135 131 132 127 123 124 124 120 117 117 120 129 137
333 329 324 316 310 302 300 300 302 302 303 307 310 313 318 324 326 322 310 299 289 246 241 310 200 174 310 278 292 281 224 215 194 197 196 194 212 215 215 224 238 250 249 257 268 288 300 304 339 302 273 273 267 282 284 285 283 239 245 279 235 208 256 248 217 216 212 219 177 158 227 254 267 254 166 141 134 131 128 130 132 130 126 126 126 128 137 146
338 333 325 319 314 306 301 300 300 301 303 307 311 318 322 322 321 321 314 303 295 188 159 300 209 194 303 284 296 265 202 210 212 206 200 200 214 220 208 208 224 239 247 253 257 277 288 278 261 251 255 268 258 258 272 290 293 239 192 243 240 213 250 255 221 206 201 205 155 153 218 259 276 222 154 127 118 124 127 133 134 131 130 134 135 139 145 149
343 337 330 324 318 313 309 304 301 300 302 307 312 319 323 320 317 321 325 308 336 192 210 277 224 189 265 278 296 280 192 205 215 200 195 206 219 217 194 189 216 222 234 244 238 252 266 196 190 238 252 257 251 271 287 275 276 281 230 237 253 241 247 235 209 199 191 182 143 160 216 246 275 178 137 113 109 120 132 141 139 137 137 142 142 147 151 153
350 344 335 329 324 322 319 311 308 304 304 310 316 321 323 317 305 308 340 100 93 327 258 277 283 184 260 256 250 234 198 202 210 194 193 210 224 227 201 181 211 210 211 241 232 225 220 200 196 232 275 263 248 234 220 235 245 291 277 252 273 270 257 199 183 198 185 174 144 163 221 242 246 189 136 140 135 127 139 145 139 139 139 144 146 149 152 156
356 352 343 337 332 328 324 319 317 313 310 313 320 322 316 311 296 281 235 159 124 79 265 234 196 174 260 236 216 226 212 189 190 187 195 208 218 238 232 199 206 208 197 216 221 207 187 212 249 252 268 251 243 225 213 240 272 323 313 278 290 293 273 212 172 178 169 159 154 168 215 239 223 206 169 172 159 131 133 131 127 141 144 146 151 154 158 161
0 357 348 340 336 331 328 327 325 319 316 320 337 339 320 320 338 10 198 208 211 228 257 228 194 225 276 282 214 217 201 161 175 194 197 205 205 226 247 214 219 222 210 212 216 210 174 181 234 227 232 236 235 216 210 281 333 334 331 316 322 323 302 318 139 169 147 121 183 186 219 249 237 228 211 188 145 125 135 136 138 153 153 154 164 168 164 163
1 359 353 344 337 333 332 332 327 321 320 329 349 348 295 298 305 15 182 224 224 225 246 249 227 231 252 272 232 184 170 151 194 211 192 197 202 205 208 199 235 249 230 234 240 229 171 191 232 228 230 230 211 169 151 17 13 355 354 336 324 318 315 3 86 160 104 99 249 341 344 285 303 309 272 198 141 137 148 149 150 160 163 166 171 170 163 158
1 360 356 346 335 333 332 328 322 319 315 315 325 232 253 278 293 349 3 262 252 233 237 247 248 242 245 260 242 177 162 181 206 227 187 179 189 196 181 180 215 247 235 234 239 230 200 223 241 231 228 220 183 81 52 39 26 6 3 349 309 305 330 345 27 50 55 86 342 4 7 309 316 331 314 216 147 152 161 159 158 161 163 171 174 164 156 157
359 358 356 349 335 329 325 321 315 306 296 275 242 231 265 285 300 346 357 286 282 257 239 237 243 248 248 259 233 178 188 194 193 223 185 172 186 191 193 196 207 228 232 225 210 195 206 237 242 225 196 184 195 40 48 36 11 330 315 336 291 294 343 331 330 25 38 64 78 37 5 316 317 341 331 300 138 130 154 156 159 165 165 170 174 163 157 164
355 355 355 350 336 322 320 315 303 295 291 275 257 256 281 291 302 3 17 262 279 266 249 234 231 235 241 255 221 174 212 207 202 212 179 178 194 175 199 229 224 231 230 222 209 204 225 229 222 187 165 165 139 60 58 42 345 295 240 220 263 286 315 345 301 359 20 10 54 56 12 317 316 342 311 299 27 106 150 145 149 162 163 166 167 163 166 169
352 352 352 350 339 317 318 312 294 306 309 276 266 276 290 290 309 27 30 275 274 261 240 231 226 221 226 236 218 188 206 215 226 217 174 179 196 177 201 223 224 246 247 239 221 212 235 227 134 122 149 153 114 115 161 144 315 308 254 221 228 266 287 263 279 43 45 346 320 91 50 296 303 318 279 287 334 179 168 134 137 132 140 160 171 168 169 166
348 348 348 349 342 320 322 309 283 324 313 261 278 299 310 326 7 28 33 290 285 250 196 190 183 197 206 210 203 188 217 228 228 223 181 178 198 202 203 215 212 234 247 254 246 202 218 213 146 122 90 40 56 337 245 151 164 291 262 253 245 259 273 259 267 52 115 253 262 141 132 268 302 312 277 278 295 236 161 117 130 118 127 153 168 166 163 164
345 344 344 345 341 323 298 292 301 321 300 272 306 326 4 25 10 21 57 336 283 211 167 174 152 180 184 183 179 153 240 240 218 219 179 171 199 204 195 242 250 233 249 318 315 287 195 162 136 110 93 67 41 281 259 190 179 248 245 272 300 290 289 272 266 272 183 206 309 156 138 170 284 285 269 278 303 267 186 126 128 139 140 149 159 166 167 169
341 340 339 341 341 315 256 284 307 316 291 291 318 334 0 5 356 23 75 332 277 157 140 202 176 171 171 182 182 176 241 247 230 198 154 163 193 175 182 240 262 270 290 305 241 260 230 137 144 128 113 176 201 232 243 210 201 232 224 225 271 303 323 318 299 274 204 121 310 268 150 155 263 272 277 293 305 267 172 146 124 112 106 137 152 160 155 150
338 338 334 335 338 319 274 276 280 294 298 307 329 338 344 349 356 46 79 152 280 306 139 152 147 174 194 192 192 206 242 253 254 181 146 161 190 168 176 236 273 299 299 272 239 227 203 179 167 148 133 192 219 234 243 238 223 216 198 217 336 348 328 319 315 317 34 98 235 266 277 139 276 282 295 321 295 224 152 153 126 87 72 102 136 146 140 145
333 333 329 328 332 337 319 279 263 310 328 324 331 331 333 344 21 72 70 286 294 286 132 102 11 174 186 198 202 208 232 261 251 185 153 155 179 160 203 263 273 295 302 299 289 239 222 190 156 150 153 196 239 242 243 252 240 180 115 51 4 345 298 292 298 50 63 16 245 247 251 212 273 277 245 283 251 200 148 126 113 96 89 96 123 144 148 149
327 327 323 317 313 316 325 270 264 344 356 346 333 327 331 356 78 130 203 290 291 279 116 139 194 185 193 204 210 202 219 254 253 169 150 129 148 160 278 308 266 274 312 316 313 281 271 114 147 194 173 194 271 288 287 286 270 116 94 71 33 346 315 311 332 40 82 275 256 271 303 223 219 261 244 268 264 170 136 134 120 103 97 92 94 111 117 107
321 320 313 303 295 276 252 241 262 342 354 345 343 347 23 38 195 203 242 312 292 278 330 233 196 196 198 199 219 213 201 234 246 176 160 171 174 188 196 203 202 252 305 284 297 295 280 235 217 208 181 187 187 277 306 309 302 35 85 76 58 344 333 346 334 17 171 251 265 19 5 325 219 246 263 270 263 84 81 133 128 112 108 103 96 95 96 94
317 316 305 290 283 269 252 253 268 305 338 340 346 37 88 107 233 220 228 282 254 243 327 306 263 237 206 188 212 223 202 209 219 191 183 185 178 191 205 203 193 174 207 241 325 325 300 299 283 269 189 182 155 139 266 282 280 225 135 125 133 169 344 302 280 334 250 275 304 28 41 321 274 278 292 280 232 74 68 92 111 110 112 105 98 93 89 89
316 315 304 283 272 264 257 258 257 264 314 336 3 95 135 203 247 256 252 263 263 269 280 282 290 281 238 194 198 210 200 207 210 193 186 189 175 189 211 211 208 195 177 205 296 198 281 313 276 251 174 168 173 173 189 217 240 231 199 153 149 152 152 202 197 145 231 271 306 355 115 257 265 264 284 289 89 84 82 85 84 89 96 93 89 86 84 82
318 317 308 288 270 261 256 250 240 239 280 323 48 152 189 219 246 245 252 253 251 263 257 239 256 279 267 236 221 214 197 199 216 213 202 190 183 195 197 203 216 212 148 148 240 210 220 254 248 236 164 157 179 210 190 199 289 268 233 129 161 167 146 164 172 176 181 135 307 287 195 231 217 257 278 329 90 93 98 95 82 76 80 86 86 81 83 80
323 322 306 283 270 262 254 243 225 218 232 255 171 215 211 227 245 233 260 266 258 283 311 283 259 267 269 268 264 241 203 183 198 210 243 214 195 202 198 194 208 206 161 133 236 298 197 255 287 300 171 160 168 252 202 129 160 278 316 166 200 165 134 129 225 215 135 89 275 240 234 280 27 307 279 154 116 110 115 112 102 92 87 89 91 88 89 86
327 324 299 268 263 259 254 235 205 198 200 168 192 229 232 240 247 250 274 284 284 298 325 331 315 291 298 318 298 273 205 172 179 182 227 295 232 237 232 211 172 167 150 118 111 327 120 270 300 323 244 178 164 200 285 70 107 59 311 263 253 94 106 110 116 311 67 111 259 221 211 237 163 272 270 165 150 141 130 122 106 99 96 94 96 97 95 94
324 316 287 266 254 243 237 210 181 177 173 190 223 244 253 255 257 268 286 292 296 307 313 231 187 202 234 276 290 295 225 141 173 201 206 212 234 329 331 276 109 104 98 95 99 319 43 313 297 324 334 333 120 149 323 343 8 182 247 275 44 75 9 58 134 186 169 188 279 258 239 218 156 240 294 233 200 175 145 131 118 113 111 105 101 102 101 103
311 302 281 269 254 232 213 187 170 169 178 210 229 240 246 257 262 266 272 272 280 292 281 280 254 205 204 198 248 292 302 186 218 269 217 191 222 327 358 343 19 47 52 76 102 268 57 81 283 314 347 359 5 83 142 305 315 271 258 290 57 148 171 185 172 164 160 183 253 285 285 317 255 258 287 272 230 144 122 123 124 126 122 115 112 110 108 112
301 283 265 285 280 228 193 175 166 176 209 215 228 247 256 263 263 259 261 264 264 271 276 321 352 309 266 221 212 248 284 268 255 303 337 315 307 310 311 301 278 83 62 71 84 22 39 80 254 306 347 8 348 296 167 184 307 23 334 293 293 348 72 45 345 88 118 145 185 8 340 280 264 276 299 303 2 85 80 75 95 115 115 112 115 115 115 119
302 272 270 305 224 171 165 156 162 193 206 233 234 245 260 264 271 277 282 287 287 72 28 326 324 311 299 320 274 229 230 239 232 169 315 322 2 11 260 276 184 139 101 80 60 35 48 91 177 306 338 337 281 296 333 351 338 328 205 182 163 112 88 60 353 329 72 130 165 143 196 264 259 266 316 352 31 69 77 73 80 95 101 104 109 113 114 119
267 240 290 349 128 142 136 126 212 197 201 241 236 245 259 255 263 270 274 290 298 225 84 293 291 284 267 289 309 293 320 250 223 162 179 200 26 9 326 344 25 93 93 98 79 35 86 101 83 287 278 281 293 311 327 328 322 311 220 148 109 105 112 113 173 261 268 245 184 124 157 266 271 284 335 26 41 75 89 97 110 111 108 111 110 108 108 109
238 289 300 304 144 141 108 163 235 251 221 237 245 250 258 258 263 261 254 284 307 278 250 231 257 280 286 314 305 299 336 321 256 257 169 144 110 73 352 356 24 52 52 68 55 351 357 78 78 290 294 310 314 317 319 321 331 338 326 6 50 79 120 132 174 215 207 224 164 99 321 271 277 298 356 22 16 65 92 111 123 116 109 112 104 101 101 96
292 269 297 292 200 166 123 183 238 264 240 246 248 249 260 265 266 266 268 306 315 306 314 289 269 312 6 356 334 327 36 94 257 286 304 119 119 125 116 25 45 53 40 44 77 291 300 76 95 36 346 340 334 333 333 340 360 11 330 342 357 27 61 76 49 26 7 280 124 114 197 268 292 334 19 30 28 50 79 101 112 112 114 115 106 105 105 102
311 250 274 274 230 204 178 194 221 238 262 273 262 262 278 279 280 288 296 287 279 323 337 325 343 10 357 348 339 327 344 130 321 320 329 111 131 148 148 102 76 74 62 39 55 84 141 125 107 119 152 252 284 344 340 340 347 342 333 337 342 18 48 62 59 52 359 308 32 95 178 257 321 3 20 36 50 66 75 71 76 78 83 94 92 83 85 103
329 298 332 322 293 326 292 282 283 255 268 279 279 294 296 288 306 317 314 301 337 1 336 314 338 3 348 354 354 332 332 358 4 348 349 21 136 154 130 105 92 95 83 50 54 71 76 45 89 134 172 199 227 261 317 339 331 320 327 329 330 360 28 53 71 89 177 347 347 171 155 171 341 16 21 35 68 101 112 85 77 64 54 76 97 101 113 119
346 344 15 351 318 343 343 329 347 328 298 286 281 310 299 283 296 315 328 359 15 5 339 315 340 4 333 330 349 339 337 345 356 1 3 7 11 82 105 106 100 94 85 75 90 96 70 12 322 271 237 256 275 295 315 319 307 301 307 310 316 341 9 40 74 225 179 74 315 255 107 102 235 217 55 56 72 94 125 129 122 121 130 140 133 141 153 131
3 348 19 8 317 329 340 336 346 338 324 319 334 353 345 347 354 353 356 358 356 1 355 339 359 4 344 339 348 326 315 341 3 8 12 14 5 5 56 85 98 109 96 81 115 114 102 204 261 289 289 290 291 297 303 299 297 301 299 294 305 337 354 0 291 256 219 175 228 221 80 317 255 235 142 128 92 82 115 142 130 128 156 159 141 142 148 140
3 334 345 0 339 307 308 318 320 319 331 347 3 354 357 18 12 352 358 4 353 7 15 5 4 6 8 21 38 29 3 13 22 15 10 8 356 349 25 46 71 116 89 56 146 112 102 203 245 345 328 322 333 328 321 314 306 308 307 304 310 338 351 353 339 331 330 241 230 172 89 21 349 5 17 66 83 77 83 89 83 72 65 114 149 161 155 152
355 319 336 342 330 316 310 320 323 327 2 14 16 358 360 16 7 349 19 37 14 7 31 31 12 7 21 40 49 40 14 12 27 28 13 8 3 358 20 33 356 17 40 19 324 64 84 199 206 80 26 341 338 324 316 311 308 312 316 324 345 9 11 14 16 13 14 341 341 54 75 47 352 348 8 17 36 63 64 62 71 69 49 33 5 329 213 201
345 322 334 316 303 321 313 322 355 45 31 12 4 4 13 17 11 10 35 42 34 24 37 50 28 16 36 43 37 20 359 353 352 354 354 359 350 337 339 351 1 7 7 7 18 43 79 204 11 74 60 315 307 318 321 328 342 343 342 353 13 32 34 32 37 40 46 33 20 36 53 20 332 350 8 13 37 64 69 62 60 57 58 59 41 11 334 276
355 337 342 325 271 309 317 359 30 46 35 9 2 13 28 28 24 25 23 27 31 23 23 44 40 29 47 37 14 350 342 333 320 318 327 332 324 318 321 325 334 346 342 358 39 103 111 89 38 88 102 259 293 351 352 6 10 345 344 7 9 36 75 64 39 26 37 57 56 43 24 310 356 24 17 8 24 44 56 73 73 61 54 55 48 32 15 351